Location: Bailen
(14.1842°N, 120.7958°E)
Time: 18:05:23
(UTC+00:00)

Cosmos 1805 Rocket - Pass Details

Date: 12 January 2026
Orbit: 598 x 623 km, 82.5° (Epoch: 17 February)

Event Time Altitude Azimuth Distance (km) Brightness Sun altitude
Rises 21:19:31 0° 179° (S) 2,884 7.3 -15.6°
Reaches altitude 10° 21:21:45 10° 177° (S) 1,982 6.4 -15.1°
Maximum altitude 21:26:07 70° 94° (E) 660 3.9 -14.1°
Drops below altitude 10° 21:30:30 10° 10° (N) 1,988 6.1 -13.1°
Sets 21:32:44 0° 8° (N) 2,894 6.9 -12.6°
